Location: Monteux
(44.0348°N, 4.9972°E)
Time: 04:06:05
(UTC+00:00)

Cosmos 2341 Rocket - Pass Details

Date: 21 April 2021
Orbit: 969 x 1003 km, 82.9° (Epoch: 11 May)

Event Time Altitude Azimuth Distance (km) Brightness Sun altitude
Rises 22:54:08 0° 4° (N) 3,717 8.0 -32.9°
Reaches altitude 10° 22:57:38 10° 24° (NNE) 2,770 7.0 -33.0°
Maximum altitude 23:01:48 18° 65° (ENE) 2,247 6.0 -33.2°
Enters shadow 23:02:34 18° 74° (ENE) 2,267 5.9 -33.2°
